Location: Bakersfield
(35.3730°N, 119.0180°W)
Time: 19:29:03
(UTC-08:00)

Daily predictions for brighter satellites

Satellite Brightness Start Highest point End
(mag) Time Altitude Azimuth Time Altitude Azimuth Time Altitude Azimuth
Cosmos 1992 Rocket 4.2 17:28:15 10° S 17:33:16 52° ESE 17:38:19 10° NNE
OAO 3 Copernicus 4.5 17:29:57 10° W 17:35:01 79° S 17:40:05 10° ESE
EO 1 Del DPAF 4.5 17:33:20 10° NE 17:36:25 23° E 17:39:29 10° SSE
Cosmos 1726 3.0 17:35:56 10° NNE 17:39:07 27° ENE 17:42:16 10° SE
CZ-2C R/B 3.8 17:35:50 10° NNE 17:40:35 75° ESE 17:45:13 10° S
SMAP 3.4 17:36:39 10° S 17:41:17 75° WSW 17:45:57 10° NNW
Cosmos 2221 3.2 17:39:38 10° NNE 17:43:37 34° E 17:47:36 10° SE
METEOR-M 4.2 17:38:24 10° SSE 17:43:38 59° ENE 17:48:54 10° N
COSMO-SKYMED 1 2.7 17:42:30 10° NNE 17:46:46 56° E 17:51:01 10° S
BREEZE-M DEB (TANK) 3.0 17:40:38 10° WSW 17:48:25 67° NW 17:51:17 10° NE
Cosmos 1674 3.0 17:44:52 10° SSW 17:48:37 70° W 17:52:22 10° N
NOSS 2-1 (C) 3.9 17:46:20 10° SW 17:49:55 52° WNW 17:53:44 10° NNE
IRAS Rocket 4.4 17:44:26 10° SSE 17:49:56 81° WSW 17:55:31 10° NNW
SL-14 R/B 4.1 17:46:40 10° SSE 17:50:13 31° E 17:53:46 10° NNE
NOSS 2-1 (D) 4.0 17:47:00 10° SW 17:50:34 49° NW 17:54:21 10° NNE
Landsat 4 3.7 17:52:12 10° NNE 17:55:55 60° ESE 17:59:34 10° S
CZ-4 R/B 4.3 17:54:20 10° SSE 17:58:26 78° ENE 18:02:33 10° N
Cosmos 968 Rocket 4.2 17:54:33 10° N 17:59:05 30° ENE 18:03:33 10° SE
BREEZE M DEB (TANK) 4.3 17:56:06 10° WSW 18:00:19 59° NNW 18:16:04 11° NE
Tiangong 1 2.5 17:59:12 10° WNW 18:01:04 18° NNW 18:02:20 14° NNE
Cosmos 1315 Rocket 3.7 17:58:36 10° SSE 18:01:58 27° E 18:04:59 12° NE
Cosmos 1842 Rocket 4.4 18:00:07 10° NNW 18:04:28 56° W 18:08:46 10° S
MONITOR-E 4.2 18:02:10 10° SSE 18:05:08 54° ENE 18:08:07 10° N
Meteor 2-14 Rocket 4.4 18:02:53 10° N 18:09:01 77° E 18:15:05 10° S
ATLAS 2AS CENTAUR R/B 2.9 18:03:47 10° NNW 18:11:37 65° NE 18:18:46 10° SE
Cosmos 2341 Rocket 4.0 18:05:29 10° N 18:11:46 88° W 18:18:04 10° S
Cosmos 1300 3.0 18:09:26 10° N 18:13:04 42° E 18:16:42 10° SSE
H-2A R/B 3.9 18:10:28 10° WSW 18:13:20 31° S 18:22:30 10° ESE
Cosmos 2369 Rocket 2.1 18:08:09 10° NNW 18:13:50 75° ENE 18:19:30 10° SSE
Meteor 2-10 3.9 18:09:33 10° N 18:14:34 68° E 18:19:38 10° SSE
Okean 3 Rocket 3.6 18:11:52 10° S 18:16:24 83° E 18:20:56 10° N
Cosmos 1076 Rocket 3.4 18:12:24 10° S 18:16:44 79° E 18:21:07 10° N
Thor Agena Rocket 4.5 18:14:35 17° NE 18:17:35 27° E 18:21:58 10° SSE
OAO 3 Rocket 3.2 18:13:15 10° WSW 18:17:56 71° SSE 18:20:50 23° E
Cosmos 1626 3.0 18:15:48 10° SSE 18:19:00 28° E 18:19:30 27° ENE
ALOS 2.3 18:18:50 10° SSE 18:23:29 87° WSW 18:28:11 10° NNW
Cosmos 1766 Rocket 3.6 18:20:48 10° SSE 18:24:59 51° E 18:28:50 12° NNE
Cosmos 2084 3.2 18:22:01 10° NW 18:25:50 80° WSW 18:29:45 10° SSE
SPOT 3 Rocket 3.4 18:25:05 10° SSE 18:30:13 83° ENE 18:35:23 10° NNW
ERS-2 2.0 18:28:31 10° SSE 18:32:09 71° ENE 18:35:50 10° N
Cosmos 1400 Rocket 4.0 18:32:10 10° SSW 18:36:00 43° WNW 18:39:54 10° N
Cosmos 1328 3.7 18:32:50 10° S 18:36:50 79° E 18:40:06 15° N
Meteor 2-2 Rocket 4.3 18:32:09 10° N 18:37:46 54° ENE 18:43:17 10° SSE
GEOS 3 Rocket 3.8 18:34:37 19° ESE 18:38:15 50° NE 18:43:25 10° NNW
Cosmos 1943 Rocket 2.0 18:34:31 10° NNW 18:40:08 81° ENE 18:45:40 10° SSE
FengYun 1-2 T 4.2 18:35:05 10° SSE 18:40:37 58° ENE 18:46:08 10° N
Cosmos 864 Rocket 4.4 18:34:28 10° N 18:40:48 71° E 18:47:05 10° SSE
Cosmos 1656 Rocket 4.2 18:36:08 10° N 18:40:57 32° ENE 18:40:57 32° ENE
H-2A R/B 2.5 18:39:37 10° SSE 18:43:20 68° ENE 18:47:08 10° N
ASTRO E2 4.4 18:42:36 10° SSW 18:45:34 20° SSE 18:45:57 20° SSE
COSMOS 2406 4.0 18:41:20 10° SSE 18:45:56 31° ESE 18:45:56 31° ESE
GPS 2-05 Rocket1 4.5 18:55:52 10° W 18:58:24 24° SSW 18:58:28 24° SSW
Cosmos 2218 Rocket 4.4 18:58:25 10° NNW 19:04:29 62° W 19:10:30 10° S
Cosmos 2098 Rocket 3.5 19:06:45 10° N 19:11:46 75° E 19:18:04 10° S
Cosmos 1703 4.4 19:09:45 10° S 19:12:09 36° SSW 19:12:09 36° SSW
Cosmos 44 3.2 19:12:36 10° SW 19:16:37 66° W 19:16:37 66° W
Cosmos 44 Rocket 3.7 19:25:04 10° SW 19:29:00 57° WSW 19:29:00 57° WSW
